User: anonymous   Login
Location: *
(40.7873°S, 98.7174°E)
Time: 05:03:47
(UTC+00:00)
Language:

SAR-Lupe-3 - Orbit

View from above orbital plane
View from above orbital plane
View from above satellite
View from above satellite

Ground track
Ground track

The orbit data is extracted from the following two-line orbital elements,

1 32283U 07053A   21100.13841844 0.00000000  00000-0  00000-0 0    03
2 32283  98.1620  65.2117 0006000 131.6881 228.3118 15.27470291    05
Epoch (UTC): 10 April 2021 03:19:19
Eccentricity: 0.0006000
inclination: 98.1620°
perigee height: 479 km
apogee height: 487 km
right ascension of ascending node: 65.2117°
argument of perigee: 131.6881°
revolutions per day: 15.27470291
mean anomaly at epoch: 228.3118°
orbit number at epoch: 0

The dashed part of the orbit path shows where the satellite is in the earth's shadow,  

DLR